Year,Month,Day,Hour,Minute,Value (Times are PST for temperature in C)
2009,06,15,00,01,11.20
2009,06,15,00,11,11.00
2009,06,15,00,22,10.80
2009,06,15,00,33,10.70
2009,06,15,00,43,10.50
2009,06,15,00,53,10.40
2009,06,15,01,04,10.30
2009,06,15,01,11,10.20
2009,06,15,01,22,10.10
2009,06,15,01,33,9.90
2009,06,15,01,44,9.80
2009,06,15,01,55,9.70
2009,06,15,02,06,9.50
2009,06,15,02,17,9.40
2009,06,15,02,28,9.30
2009,06,15,02,38,9.20
2009,06,15,02,49,9.10
2009,06,15,03,00,9.10
2009,06,15,03,09,9.00
2009,06,15,03,20,8.90
2009,06,15,03,31,8.80
2009,06,15,03,42,8.80
2009,06,15,03,53,8.70
2009,06,15,04,04,8.60
2009,06,15,04,16,8.60
2009,06,15,04,26,8.50
2009,06,15,04,37,8.40
2009,06,15,04,48,8.40
2009,06,15,04,59,8.40
2009,06,15,05,10,8.30
2009,06,15,05,21,8.30
2009,06,15,05,31,8.30
2009,06,15,05,42,8.40
2009,06,15,05,53,8.30
2009,06,15,06,04,8.40
2009,06,15,06,15,8.50
2009,06,15,06,26,8.70
2009,06,15,06,38,8.90
2009,06,15,06,50,9.40
2009,06,15,07,00,9.90
2009,06,15,07,11,10.50
2009,06,15,07,22,11.80
2009,06,15,07,32,12.30
2009,06,15,07,43,12.80
2009,06,15,07,54,13.70
2009,06,15,08,02,14.10
2009,06,15,08,13,14.50
2009,06,15,08,24,15.00
2009,06,15,08,35,15.60
2009,06,15,08,46,15.70
2009,06,15,08,57,15.50
2009,06,15,09,08,16.20
2009,06,15,09,19,16.70
2009,06,15,09,30,16.70
2009,06,15,09,41,17.00
2009,06,15,09,53,17.10
2009,06,15,10,05,16.90
2009,06,15,10,16,17.10
2009,06,15,10,27,17.60
2009,06,15,10,38,17.80
2009,06,15,10,47,17.50
2009,06,15,10,58,17.50
2009,06,15,11,08,17.60
2009,06,15,11,19,17.90
2009,06,15,11,30,18.10
2009,06,15,11,41,18.20
2009,06,15,11,52,19.20
2009,06,15,12,02,19.40
2009,06,15,12,13,19.80
2009,06,15,12,24,20.50
2009,06,15,12,35,20.30
2009,06,15,12,46,20.10
2009,06,15,12,57,20.30
2009,06,15,13,06,20.80
2009,06,15,13,16,20.90
2009,06,15,13,27,21.20
2009,06,15,13,38,21.20
2009,06,15,13,49,21.10
2009,06,15,14,00,21.10
2009,06,15,14,08,20.90
2009,06,15,14,19,21.30
2009,06,15,14,30,21.20
2009,06,15,14,41,21.80
2009,06,15,14,52,21.70
2009,06,15,15,03,20.80
2009,06,15,15,14,20.90
2009,06,15,15,25,21.20
2009,06,15,15,36,21.50
2009,06,15,15,47,21.20
2009,06,15,15,58,20.90
2009,06,15,16,09,20.90
2009,06,15,16,21,20.30
2009,06,15,16,32,20.30
2009,06,15,16,33,20.30
2009,06,15,16,34,20.30
2009,06,15,16,45,20.30
2009,06,15,16,56,20.20
2009,06,15,17,07,20.40
2009,06,15,17,18,20.50
2009,06,15,17,29,20.50
2009,06,15,17,37,20.30
2009,06,15,17,48,20.10
2009,06,15,17,59,20.10
2009,06,15,18,10,20.20
2009,06,15,18,21,20.30
2009,06,15,18,32,20.30
2009,06,15,18,43,20.30
2009,06,15,18,53,20.10
2009,06,15,19,02,19.90
2009,06,15,19,13,19.70
2009,06,15,19,25,19.60
2009,06,15,19,37,19.30
2009,06,15,19,48,19.20
2009,06,15,19,59,18.80
2009,06,15,20,10,18.50
2009,06,15,20,21,18.10
2009,06,15,20,32,17.50
2009,06,15,20,43,17.10
2009,06,15,20,54,16.70
2009,06,15,21,05,16.30
2009,06,15,21,16,15.80
2009,06,15,21,27,15.50
2009,06,15,21,38,15.00
2009,06,15,21,49,14.70
2009,06,15,22,00,14.30
2009,06,15,22,11,14.00
2009,06,15,22,22,13.80
2009,06,15,22,34,13.50
2009,06,15,22,43,13.30
2009,06,15,22,54,13.10
2009,06,15,23,05,12.90
2009,06,15,23,16,12.70
2009,06,15,23,27,12.50
2009,06,15,23,37,12.40
2009,06,15,23,48,12.30
2009,06,15,23,59,12.20
